Location: Kellogg
(38.0159°N, 90.0546°W)
Time: 19:51:08
(UTC+00:00)

S-56A Canister/Altair - Pass Details

Date: 21 September 2024
Orbit: 636 x 2487 km, 38.9° (Epoch: 04 October)

Event Time Altitude Azimuth Distance (km) Brightness Sun altitude
Rises 04:39:59 0° 282° (WNW) 3,886 11.5 -47.9°
Enters shadow 04:42:31 10° 274° (W) 3,158 10.9 -48.2°
Reaches altitude 10° 04:42:34 10° 274° (W) 3,146 - -48.2°
Maximum altitude 04:49:46 37° 210° (SSW) 2,254 - -48.8°
Drops below altitude 10° 04:59:59 10° 149° (SSE) 4,475 - -49.6°
Sets 05:04:27 0° 142° (SE) 5,724 - -49.9°
